User: anonymous   Login
Location: Copper Breaks State Park
(34.1132°N, 99.7492°W)
Time: 15:44:56
(UTC-06:00)
Language:

SL-16 R/B - Orbit

View from above orbital plane
View from above orbital plane
View from above satellite
View from above satellite

Ground track
Ground track

The orbit data is extracted from the following two-line orbital elements,

1 27006U 01056F   14352.05473525 -.00000006  00000-0  40219-4 0  3174
2 27006 099.1817 151.6699 0015004 168.2382 298.1339 13.70934927651517
Epoch (UTC): 18 December 2014 01:18:49
Eccentricity: 0.0015004
inclination: 99.1817°
perigee height: 985 km
apogee height: 1007 km
right ascension of ascending node: 151.6699°
argument of perigee: 168.2382°
revolutions per day: 13.70934927
mean anomaly at epoch: 298.1339°
orbit number at epoch: 65151

The dashed part of the orbit path shows where the satellite is in the earth's shadow,  

DLR